• Join FlightAware (Why Join?)
  • Login
  • US Flag GB Flag 
05:58 EST


 

Airport Tracker/Info


-or-


 

Live Flight TrackerFlight Track Log ✈ SWA3294 ✈ 06-Apr-2013 ✈ KCLE - KMDW

Flight Track Log - Related Links

Times and Time Zones

All times are in EDT time to prevent confusion due to time zone crossing. See the SWA3294 flight status page for this flight to view local times or setup timezone preferences in your user account.

Time Position Orientation Groundspeed Altitude Reporting Facility
EDT Latitude Longitude Course Direction KTS MPH feet Rate Location/Type
10:31 41.4611 -81.8411 356° North 237 273 3,600  Level Cleveland Center
10:32 41.4939 -81.8917 311° West 243 280 6,400 3,000 Climbing Cleveland Center
10:33 41.4700 -81.9825 251° West 238 274 9,800 2,340 Climbing Cleveland Center
10:34 41.4394 -82.0817 248° West 277 319 11,100 2,100 Climbing Cleveland Center
10:35 41.4044 -82.1969 248° West 326 375 14,100 2,520 Climbing Cleveland Center
10:36 41.3672 -82.3206 248° West 359 413 16,200 2,220 Climbing Cleveland Center
10:37 41.3275 -82.4550 249° West 364 419 18,600 2,220 Climbing Cleveland Center
10:38 41.2983 -82.5869 254° West 370 426 20,700 1,920 Climbing Cleveland Center
10:39 41.2811 -82.7217 260° West 362 417 22,500 1,680 Climbing Cleveland Center
10:40 41.2619 -82.8594 260° West 381 438 24,100 1,560 Climbing Cleveland Center
10:41 41.2442 -83.0078 261° West 394 453 25,700 900 Climbing Cleveland Center
10:42 41.2597 -83.1603 278° West 402 463 26,000 900 Climbing Cleveland Center
10:43 41.2750 -83.3075 278° West 407 468 27,600 1,500 Climbing Cleveland Center
10:44 41.2900 -83.4600 278° West 412 474 29,100 1,200 Climbing Cleveland Center
10:45 41.3069 -83.6100 279° West 412 474 30,000 420 Climbing Cleveland Center
10:46 41.3217 -83.7572 278° West 412 474 30,000  Level Cleveland Center
10:47 41.3411 -83.8883 281° West 412 474 30,000  Level Cleveland Center
10:49 41.3617 -84.1564 276° West 402 463 30,000  Level Chicago Center
10:50 41.3789 -84.3319 278° West 400 460 30,000  Level Chicago Center
10:51 41.3933 -84.4778 278° West 399 459 30,000  Level Chicago Center
10:52 41.4058 -84.6253 276° West 401 461 30,000  Level Chicago Center
10:53 41.4192 -84.7728 277° West 402 463 30,000 -300 Level Chicago Center
10:54 41.4322 -84.9228 277° West 406 467 29,400 -840 Descending Chicago Center
10:55 41.4456 -85.0667 277° West 395 455 28,400 -960 Descending Chicago Center
10:56 41.4581 -85.2161 276° West 401 461 27,500 -1,320 Descending Chicago Center
10:57 41.4700 -85.3656 276° West 401 461 25,800 -1,800 Descending Chicago Center
10:58 41.4819 -85.5136 276° West 394 453 23,900 -1,440 Descending Chicago Center
10:59 41.4944 -85.6483 277° West 364 419 22,900 -960 Descending Chicago Center
11:00 41.5053 -85.7875 276° West 374 430 22,000 -1,920 Descending Chicago Center
11:01 41.5183 -85.9497 276° West 366 421 19,000 -2,520 Descending Chicago Center
11:02 41.5250 -86.0764 274° West 347 399 16,900 -2,160 Descending Chicago Center
11:03 41.5239 -86.1986 269° West 332 382 14,600 -2,220 Descending Chicago Center
11:04 41.5225 -86.3194 269° West 328 377 12,400 -1,860 Descending Chicago Center
11:05 41.5222 -86.4394 270° West 327 376 10,800 -1,200 Descending Chicago Center
11:06 41.5211 -86.5531 269° West 310 357 10,000 -360 Descending Chicago Center
11:07 41.5203 -86.6678 269° West 309 356 10,100  Climbing Chicago Center
11:08 41.5203 -86.7853 270° West 309 356 10,000  Descending Chicago Center
11:09 41.5181 -86.8758 268° West 249 287 10,100 -660 Climbing Chicago Center
11:10 41.5178 -86.9831 270° West 244 281 8,700 -1,320 Descending Chicago Center
11:11 41.5247 -87.0739 276° West 249 287 7,500 -1,080 Descending Chicago Center
11:12 41.5403 -87.1661 283° West 252 290 6,500 -1,080 Descending Chicago Center
11:13 41.5500 -87.2000 291° West 249 287 6,100 -960 Descending Chicago TRACON
11:14 41.5500 -87.2833 270° West 246 283 5,400 -840 Descending Chicago TRACON
11:14 41.5667 -87.3500 288° West 240 276 4,600 -780 Descending Chicago TRACON
11:15 41.5758 -87.4281 279° West 241 277 4,000 -360 Descending Chicago Center
11:17 41.6172 -87.5181 302° West 253 291 3,900 -60 Descending Chicago Center
11:18 41.6633 -87.5825 314° West 249 287 3,900 -480 Level Chicago Center
11:18 41.7000 -87.6333 314° West 202 232 3,000 -960 Descending Chicago TRACON
11:19 41.7333 -87.6833 312° West 218 251 2,200 -600 Descending Chicago TRACON
11:20 41.8000 -87.6833 360° North 198 228 1,800 -540 Descending Chicago TRACON
11:21 41.8167 -87.7167 304° West 149 171 1,200 -600 Descending Chicago TRACON